Weather History for Leadville, CO

Change the Weather History Date:

Friday, November 8, 2013

  Actual Average Record
Temperature  
Mean Temperature 36 °F -  
Max Temperature 44 °F 40 °F 59 °F (1980)
Min Temperature 27 °F 15 °F 2 °F (1993)
Degree Days  
Heating Degree Days 29 37  
Month to date heating degree days 327 287  
Since 1 July heating degree days 2362 2476  
Cooling Degree Days 0 0  
Month to date cooling degree days 0 0  
Year to date cooling degree days 0 0  
Moisture  
Dew Point 12 °F    
Average Humidity 41    
Maximum Humidity 58    
Minimum Humidity 24    
Precipitation  
Precipitation 0.00 in 0.03 in 0.39 in (2001)
Month to date precipitation 0.28 0.23  
Year to date precipitation 16.15 11.17  
Sea Level Pressure  
Sea Level Pressure 29.93 in    
Wind  
Wind Speed 9 mph (North)    
Max Wind Speed 24 mph    
Max Gust Speed 38 mph    
Visibility 10 miles    
Events      
T = Trace of Precipitation, MM = Missing Value Source: NWS Daily Summary

Daily Weather History Graph

Daily Weather History Graph

Search for Another Location

Airport:

Trip Planner

Search our weather history database for the weather conditions in past years. The results will help you decide how hot, cold, wet, or windy it might be!

Date:

Astronomy

Nov. 08, 2013 Rise Set
Actual Time 6:41 AM MST 4:56 PM MST
Civil Twilight 6:12 AM MST 5:24 PM MST
Nautical Twilight 5:40 AM MST 5:56 PM MST
Astronomical Twilight 5:09 AM MST 6:28 PM MST
Moon 11:38 AM MST (11/8) 10:20 PM MST (11/8)
Length of Visible Light 11h 11m
Length of Day
10h 15m
Waxing Crescent, 34% of the Moon is Illuminated
Nov 8
Waxing Crescent
Nov 9
First Quarter
Nov 17
Full
Nov 25
Last Quarter
Dec 2
New

Hourly Weather History & Observations

Time (MST) Temp. Windchill Dew Point Humidity Pressure Visibility Wind Dir Wind Speed Gust Speed Precip Events Conditions
12:53 AM 28.9 °F 21.9 °F 14.0 °F 54% 29.97 in 10.0 mi ENE 6.9 mph - N/A   Clear
1:53 AM 30.9 °F 22.8 °F 14.0 °F 50% 29.92 in 10.0 mi NE 9.2 mph - N/A   Partly Cloudy
2:53 AM 30.9 °F 27.5 °F 12.0 °F 46% 29.90 in 10.0 mi ENE 3.5 mph - N/A   Partly Cloudy
3:53 AM 30.0 °F 22.4 °F 10.0 °F 43% 29.88 in 10.0 mi East 8.1 mph - N/A   Clear
4:53 AM 30.9 °F - 9.0 °F 40% 29.93 in 10.0 mi Calm Calm - N/A   Clear
5:53 AM 30.0 °F 24.1 °F 7.0 °F 38% 29.97 in 10.0 mi NE 5.8 mph - N/A   Clear
6:53 AM 30.0 °F 22.4 °F 7.0 °F 38% 29.98 in 10.0 mi ENE 8.1 mph - N/A   Clear
7:53 AM 33.1 °F 26.9 °F 8.1 °F 35% 29.96 in 10.0 mi NNE 6.9 mph - N/A   Clear
8:53 AM 39.0 °F 32.3 °F 9.0 °F 29% 29.91 in 10.0 mi North 10.4 mph - N/A   Clear
9:53 AM 43.0 °F 36.4 °F 9.0 °F 25% 29.89 in 10.0 mi NNW 12.7 mph 18.4 mph N/A   Clear
10:53 AM 42.1 °F 35.2 °F 10.9 °F 28% 29.86 in 10.0 mi NW 12.7 mph 20.7 mph N/A   Clear
11:53 AM 42.1 °F 35.7 °F 12.9 °F 31% 29.87 in 10.0 mi NW 11.5 mph - N/A   Clear
12:53 PM 42.1 °F 34.9 °F 14.0 °F 32% 29.86 in 10.0 mi NNW 13.8 mph 32.2 mph N/A   Clear
1:53 PM 41.0 °F 31.9 °F 14.0 °F 33% 29.85 in 10.0 mi WNW 19.6 mph 38.0 mph N/A   Clear
2:53 PM 43.0 °F 35.7 °F 14.0 °F 31% 29.86 in 10.0 mi NNW 15.0 mph 23.0 mph N/A   Clear
3:53 PM 41.0 °F 33.9 °F 14.0 °F 33% 29.89 in 10.0 mi North 12.7 mph - N/A   Clear
4:53 PM 37.0 °F 30.4 °F 14.0 °F 39% 29.91 in 10.0 mi NNW 9.2 mph - N/A   Clear
5:53 PM 35.1 °F 27.4 °F 15.1 °F 44% 29.96 in 10.0 mi NNW 10.4 mph - N/A   Clear
6:53 PM 34.0 °F 26.0 °F 15.1 °F 46% 29.99 in 10.0 mi NNW 10.4 mph - N/A   Clear
7:53 PM 33.1 °F 24.9 °F 14.0 °F 46% 29.98 in 10.0 mi North 10.4 mph - N/A   Clear
8:53 PM 30.9 °F 21.2 °F 12.9 °F 47% 29.97 in 10.0 mi North 12.7 mph - N/A   Clear
9:53 PM 28.9 °F - 15.1 °F 56% 29.99 in 10.0 mi Calm Calm - N/A   Clear
10:53 PM 28.9 °F 22.8 °F 12.9 °F 51% 29.99 in 10.0 mi East 5.8 mph - N/A   Clear
11:53 PM 28.9 °F - 12.0 °F 49% 30.00 in 10.0 mi Calm Calm - N/A   Clear